User: anonymous   Login
Location: Melbourne
(37.8170°S, 144.9670°E)
Time: 00:45:50
(UTC+10:00)
Language:

Aureole 2 Rocket - Orbit

View from above orbital plane
View from above orbital plane
View from above satellite
View from above satellite

Ground track
Ground track

The orbit data is extracted from the following two-line orbital elements,

1  7004U 73107B   17207.86159134 +.00010923 +00000-0 +16079-3 0  9994
2  7004 073.9357 336.9636 0174417 196.9593 162.5744 15.39792592243335
Epoch (UTC): 26 July 2017 20:40:41
Eccentricity: 0.0174417
inclination: 73.9357°
perigee height: 327 km
apogee height: 566 km
right ascension of ascending node: 336.9636°
argument of perigee: 196.9593°
revolutions per day: 15.39792592
mean anomaly at epoch: 162.5744°
orbit number at epoch: 24333

The dashed part of the orbit path shows where the satellite is in the earth's shadow,  

DLR